ATLAS 5 CENTAUR DEB, 43999

Orbit data source: Space-Track

ATLAS 5 CENTAUR DEB, 43999 is space debris in HEO originally from a launch on Wed, 17 Sep 2014 UTC launched from the Air Force Eastern Test Range (AFETR). Debris objects in space refer to the collection of defunct objects orbiting the Earth. Examples of debris include non-operational satellites, rocket bodies, and fragments generated from explosions, collisions, or faulty payload assembly.

Loading next visibility...
Identifier
43999, 2014-055BE
Orbit
HEO
Country
Flag of USUS
Related business
Flag of USUnited Launch Alliance/Lockheed Martin (US)
Manufacturer
Unknown
Mission
Spacecraft
Bus & Motor
Unknown
Mass
Unknown
Launch date (UTC)
2014-09-17 (12 years ago)
Launch vehicle
Unknown
Launch site
Air Force Eastern Test Range (AFETR)
Object type
Payload
Rocket body
Debris
Shape & HBR
Unknown shape, 1.1 m
Radar Cross Section
Small (<0.1 m²)

Expand to show TLE details & history
Last TLE update: 5 days ago

TLE from 5 days ago
0 ATLAS 5 CENTAUR DEB
1 43999U 14055BE  26115.32293215 -.00000009  00000-0  00000-0 0  9991
2 43999  19.8871 155.4319 4739917 145.4641 257.2541  1.85335057 51721
Epoch: 2026-04-25T07:45Z
TLE epoch observation values (Epoch: 2026-04-25T07:45:01.337Z)
Latitude
0.00001°
Longitude
-174.11192°
Altitude
29,211.99 km
Speed
2.857 km/s
True Right ascension
10h 21m 56s
True Declination
0° 00' 00"
Sunlit
Object was in daylight at epoch
Visualization orbit readout
Latitude
Unknown
Longitude
Unknown
Altitude
Unknown
Speed
Unknown
Apparent Right ascension
Unknown
Apparent Declination
Unknown
Sunlit
N/A
Visualization observer readout
Local Sidereal Time
09:33:26
Azimuth
Unknown
Elevation
Unknown
Doppler factor
Unknown
Orbital elements
Apogee altitude
34,890.644 km
Perigee altitude
8,349.029 km
Semi-major axis
27,997.974 km
Eccentricity
0.47399
Inclination
19.8871°
RAAN
155.4319°
Arg. of periapsis
145.4641°
True anomaly
214.55302°
Mean anomaly
257.2541°
Eccentric anomaly
235.00613°
Mean motion
0.46329 °/min
Orbital period
777.05 mins
BSTAR
0
Loading maneuver chart data...
Computing Atmospheric mass density...

Documentation

Showing up to 5 results
|